MST,Max TemperatureF,Mean TemperatureF,Min TemperatureF,Max Dew PointF,MeanDew PointF,Min DewpointF,Max Humidity, Mean Humidity, Min Humidity, Max Sea Level PressureIn, Mean Sea Level PressureIn, Min Sea Level PressureIn, Max VisibilityMiles, Mean VisibilityMiles, Min VisibilityMiles, Max Wind SpeedMPH, Mean Wind SpeedMPH, Max Gust SpeedMPH,PrecipitationIn, CloudCover, Events, WindDirDegrees
2012-12-1,81,59,37,28,23,18,60,32,10,30.01,29.95,29.89,10,10,10,20,5,28,0.00,0,,242
2012-12-2,75,55,35,25,19,15,52,28,14,30.06,29.96,29.88,10,10,10,12,6,,0.00,0,,250
2012-12-3,79,61,43,23,20,16,45,23,10,30.10,29.90,29.85,10,10,10,28,11,40,0.00,0,,265
2012-12-4,62,52,37,32,29,22,68,45,32,30.32,30.23,30.04,10,10,10,12,7,,0.00,0,,308
2012-12-5,69,50,32,34,30,25,75,51,25,30.25,30.08,29.88,10,10,10,14,4,,0.00,0,,128
2012-12-6,79,56,34,31,26,19,73,40,11,29.89,29.81,29.71,10,10,10,13,3,,0.00,0,,307
2012-12-7,69,53,37,27,25,21,53,36,20,29.87,29.79,29.72,10,10,10,12,7,,0.00,0,,311
2012-12-8,72,56,39,28,25,21,55,33,16,29.86,29.77,29.69,10,10,10,29,8,36,0.00,0,,260
2012-12-9,62,48,28,28,23,13,78,34,25,30.23,29.87,29.70,10,10,5,26,13,41,0.00,1,,330
2012-12-10,44,32,19,25,16,10,86,56,31,30.26,30.11,29.98,10,10,10,15,8,,0.00,1,,188
2012-12-11,53,37,21,14,11,8,65,41,18,30.13,30.06,30.00,10,10,10,13,5,21,0.00,0,,328
2012-12-12,66,42,19,10,6,1,59,30,8,30.15,30.05,29.94,10,10,10,12,4,,0.00,0,,188
2012-12-13,64,44,23,34,17,5,58,36,18,30.11,30.02,29.91,10,10,8,10,4,,0.00,0,,188
2012-12-14,69,56,43,43,35,22,87,56,28,29.90,29.78,29.57,10,8,1,46,16,55,0.01,2,,212
2012-12-15,62,50,39,32,27,21,62,40,30,29.96,29.86,29.81,10,10,10,28,8,36,0.00,0,,242
2012-12-16,60,51,42,32,29,25,62,44,30,29.93,29.84,29.75,10,10,10,28,12,34,0.00,0,,273
2012-12-17,66,52,37,26,23,18,54,37,17,29.98,29.88,29.78,10,10,10,23,11,31,0.00,0,,237
2012-12-18,72,57,42,25,19,13,47,22,11,29.82,29.71,29.60,10,10,10,30,12,38,0.00,0,,244
2012-12-19,66,52,33,32,16,-1,40,25,11,30.23,29.73,29.55,10,8,2,47,15,61,0.00,3,,275
2012-12-20,51,35,19,9,4,-1,52,31,14,30.45,30.39,30.27,10,10,10,12,7,,0.00,0,,191
2012-12-21,55,36,18,1,-1,-4,42,25,9,30.43,30.30,30.18,10,10,8,12,4,,0.00,0,,184
2012-12-22,61,44,26,19,5,-1,32,23,13,30.17,30.07,29.97,10,10,10,23,5,32,0.00,1,,305
2012-12-23,70,52,35,27,20,7,45,28,16,29.99,29.93,29.86,10,10,10,23,9,31,0.00,0,,284
2012-12-24,63,46,28,33,21,17,61,37,18,29.91,29.75,29.59,10,10,10,38,6,50,0.00,0,,247
2012-12-25,46,35,24,33,17,10,60,47,33,30.27,30.00,29.60,10,10,7,28,16,33,0.00,0,Snow,331
2012-12-26,39,31,23,13,12,10,58,48,32,30.25,30.05,29.82,10,10,7,16,7,22,0.00,0,,140
2012-12-27,55,39,23,30,16,12,67,46,19,29.86,29.78,29.67,10,10,10,33,8,40,0.00,1,,274
2012-12-28,48,38,26,26,17,12,63,47,28,30.22,30.01,29.80,10,10,10,16,9,22,0.00,0,,293
2012-12-29,46,31,16,16,12,7,68,47,29,30.40,30.29,30.17,10,10,10,13,5,20,0.00,0,,190
2012-12-30,43,34,26,33,19,11,93,55,34,30.17,30.04,29.91,10,10,8,13,7,20,0.02,3,Rain,148
2012-12-31,54,41,28,33,28,23,100,72,30,30.03,29.94,29.89,10,7,0,32,8,43,0.09,4,Fog-Rain,209